Theta_e
304 305 306 307 308 309 310 311 313 313 314 315 316 317 316 317 317 320 323 328 341 347 352 356 352 345 344 349 351 359 363 355 351 356 354 351 353 344 341 338 339 339 338 335 336
305 305 306 307 308 308 309 310 311 313 314 315 316 317 317 317 318 323 322 335 339 351 353 350 347 350 362 351 354 360 356 352 348 347 351 351 351 349 346 339 341 340 337 336 337
305 305 307 307 308 308 309 310 311 312 314 315 316 317 318 317 323 321 331 335 339 352 348 347 350 359 367 350 356 352 359 353 352 351 349 351 351 347 345 344 341 342 338 337 338
306 306 307 308 309 309 310 310 311 312 313 315 316 318 319 325 321 332 331 339 341 354 353 356 357 366 367 346 348 350 350 352 352 353 352 351 350 349 344 343 339 339 336 338 341
307 307 309 311 312 313 312 312 312 312 313 316 317 320 318 318 318 325 336 341 351 348 353 346 359 358 351 346 349 352 350 351 350 347 348 351 350 350 345 343 341 338 339 340 341
309 312 314 316 316 316 315 314 313 313 315 316 319 320 325 317 320 328 326 342 349 346 343 342 341 340 343 345 348 349 350 346 346 347 352 347 348 350 347 343 342 340 341 341 341
310 313 316 316 317 316 316 314 313 314 316 318 319 320 324 314 325 332 326 330 337 339 337 340 340 339 340 346 348 349 351 347 347 352 353 348 348 350 346 343 344 342 341 342 341
311 315 316 316 316 316 315 314 314 316 317 319 318 323 313 318 320 323 329 336 336 335 339 339 341 338 342 344 349 351 350 349 347 351 350 349 354 351 343 345 345 343 342 342 341
312 317 317 315 316 315 315 316 317 318 319 320 323 320 319 322 324 323 322 327 328 337 337 339 336 340 344 344 343 347 348 348 349 348 350 348 355 351 345 343 344 344 342 341 341
311 318 317 315 315 315 316 318 323 321 322 324 326 322 319 322 322 322 323 324 320 320 321 324 322 325 337 337 337 348 347 347 348 348 350 351 351 349 347 344 343 342 341 341 340
310 318 317 316 316 318 319 323 315 318 323 319 313 321 319 321 322 322 321 320 319 319 319 320 321 325 324 337 336 341 346 347 344 345 348 351 351 352 347 345 344 342 341 341 340
310 318 318 316 317 320 320 321 321 321 320 318 320 320 322 322 324 322 322 321 320 320 319 317 319 320 323 326 330 339 340 343 344 345 344 348 347 344 350 349 344 343 342 341 341
311 318 320 318 319 322 319 324 324 322 318 320 320 322 322 322 323 321 321 319 320 319 319 318 319 321 323 327 341 341 339 341 342 343 341 343 343 348 351 349 345 343 342 341 341
312 316 321 319 322 322 321 324 325 321 321 326 325 324 322 318 320 319 319 319 318 318 315 317 318 320 320 320 328 331 336 341 342 341 343 340 345 353 351 351 346 344 343 342 341
313 317 321 321 321 322 325 324 325 320 323 327 323 322 318 318 319 319 318 318 318 318 317 318 320 320 320 320 330 328 334 341 342 341 329 329 343 347 347 352 351 345 343 343 342
315 318 320 322 321 324 323 325 323 323 326 325 322 322 322 320 320 319 320 319 317 318 317 318 317 319 318 320 325 323 321 317 320 321 324 323 325 323 348 351 350 347 345 343 342
321 322 322 322 322 324 324 321 325 325 324 323 322 321 319 319 320 320 319 318 317 317 316 316 318 317 319 322 320 315 313 316 319 320 321 320 322 321 323 337 347 347 346 343 342
318 324 326 325 327 326 325 321 325 328 324 322 323 320 321 319 319 318 318 316 317 314 315 320 323 324 325 324 324 319 314 314 319 317 317 315 320 325 333 336 340 346 344 341 342
321 327 327 328 329 326 321 328 323 323 322 324 322 322 322 322 322 321 322 324 323 322 324 323 325 323 325 325 319 318 317 313 311 311 315 315 317 318 324 339 341 341 342 343 341
322 328 329 329 328 324 323 329 330 321 323 322 323 323 324 323 325 324 327 327 327 324 321 326 326 325 324 323 323 321 315 316 310 317 318 315 319 320 324 326 335 340 340 340 340
326 324 328 329 330 319 327 327 330 324 322 323 323 325 324 325 323 325 328 328 327 326 322 323 323 325 322 323 325 322 322 316 312 310 313 315 326 318 321 324 327 336 337 336 340
318 328 328 326 321 318 327 329 326 327 323 326 325 326 326 325 323 324 327 325 323 326 327 323 318 322 325 321 319 324 324 318 322 326 311 312 316 318 323 330 333 335 338 345 346
316 317 325 323 318 317 315 320 323 325 323 325 324 324 324 324 326 323 324 323 324 324 325 324 318 317 319 319 321 321 320 321 316 316 323 323 324 322 338 346 340 338 350 350 356
318 318 316 312 311 319 319 318 321 322 321 323 323 322 323 321 318 322 321 322 320 322 333 324 315 319 321 322 320 322 319 320 319 320 320 321 323 326 345 349 348 347 344 340 346
313 318 317 318 319 319 317 318 322 322 320 316 319 321 324 318 318 318 317 316 317 322 316 316 322 320 318 319 320 319 319 319 323 322 324 322 321 339 348 346 343 336 337 338 339
316 317 314 318 318 319 316 317 320 319 319 319 319 319 318 318 317 318 316 316 316 317 315 309 314 316 317 316 317 320 318 318 320 321 320 320 332 340 344 342 337 336 336 335 334
319 317 317 319 322 324 323 322 323 320 320 320 320 319 319 317 314 314 312 312 314 314 311 312 309 310 313 313 317 317 316 320 320 327 327 333 336 343 344 343 338 335 335 334 334
Wind_Speed
17 17 17 17 16 16 17 17 17 17 18 18 19 21 22 24 23 8 6 9 19 31 23 20 12 5 2 2 2 2 3 2 4 6 4 10 7 8 7 10 6 9 6 6 25
18 18 17 17 17 16 17 16 16 17 17 18 19 20 22 24 17 9 4 15 25 34 25 23 8 6 1 1 2 3 1 2 2 3 5 10 9 13 7 14 9 9 6 19 23
19 19 18 17 17 17 16 16 15 15 16 17 18 19 19 18 4 5 4 18 35 36 26 17 12 1 1 3 4 3 3 3 6 5 5 8 6 14 11 12 11 18 13 17 20
21 19 18 18 17 16 16 15 14 14 15 15 17 17 17 6 2 3 13 23 33 29 22 11 4 3 3 4 3 4 3 1 5 9 5 2 7 11 13 12 17 16 23 18 16
22 21 19 18 17 16 15 15 14 13 13 13 14 14 6 4 7 3 15 24 35 22 17 9 7 5 5 3 2 1 2 7 5 8 7 9 4 9 13 2 14 17 18 18 16
22 21 20 18 17 16 15 14 13 11 10 11 11 8 2 3 2 6 12 29 27 22 10 11 7 7 4 1 3 3 5 1 5 6 5 3 0 3 5 10 15 21 19 17 18
22 22 20 17 16 15 14 13 12 11 9 9 6 2 1 12 1 10 12 17 24 19 5 11 7 1 4 2 1 3 7 7 3 3 2 5 4 3 2 16 19 18 17 16 15
22 21 18 16 15 14 13 13 11 9 7 4 3 2 6 3 4 16 17 14 17 18 22 5 9 6 4 1 4 5 3 5 3 7 5 7 8 5 9 10 15 17 14 16 16
22 19 17 15 15 14 13 12 10 7 3 2 2 2 8 5 7 17 21 11 10 19 19 13 2 4 3 3 3 5 3 1 5 5 4 1 6 4 11 12 12 15 15 16 16
22 19 16 15 15 15 13 11 4 2 3 1 1 2 6 2 5 4 11 16 4 1 2 3 5 3 3 4 5 5 3 5 5 7 5 5 8 4 9 17 17 14 16 17 17
22 18 16 14 14 15 15 1 4 3 2 7 5 3 6 9 6 2 5 8 3 5 2 3 4 4 9 7 7 5 4 7 8 7 4 9 7 13 15 14 17 17 16 17 19
21 18 15 13 12 13 7 2 3 1 6 8 5 6 12 1 4 4 2 4 3 4 1 6 4 8 5 6 7 4 7 8 8 4 2 9 15 13 14 19 24 21 19 20 18
19 17 14 14 13 4 9 5 18 10 2 7 5 5 5 9 7 8 7 3 3 3 3 5 8 1 4 3 4 4 8 7 6 5 3 3 8 1 1 7 18 21 24 21 22
18 16 14 15 2 9 7 11 20 1 5 6 3 6 4 5 4 5 8 6 1 9 7 5 4 3 2 5 7 6 11 16 10 3 4 4 5 7 3 5 14 18 21 20 20
16 13 12 10 8 3 7 19 13 4 5 1 3 0 1 7 3 7 5 5 7 7 6 8 3 3 3 7 7 11 2 9 11 4 4 3 2 7 1 9 12 17 20 20 20
15 11 9 6 9 7 13 19 2 5 3 4 3 2 2 1 3 6 1 4 3 5 1 5 2 4 6 5 8 1 3 8 5 4 1 6 4 6 5 12 11 8 15 17 18
13 9 8 7 3 7 16 4 5 5 4 8 4 2 3 4 3 2 3 3 2 4 4 6 5 5 2 4 2 6 7 3 3 3 5 1 3 10 5 7 14 20 15 12 17
16 10 8 12 9 8 5 5 8 2 3 5 4 3 2 2 2 2 3 5 2 5 3 3 7 6 7 2 4 4 7 6 4 3 5 0 3 6 6 9 11 2 9 10 9
14 5 6 3 3 3 5 6 3 3 4 6 4 8 9 6 3 4 5 4 3 1 4 3 4 6 1 3 1 2 1 3 7 3 1 4 7 9 12 10 5 8 7 8 10
6 5 4 2 6 4 5 3 3 5 1 5 5 4 6 8 5 4 2 1 2 5 3 1 4 1 6 6 7 6 3 3 4 2 3 5 2 4 12 18 7 2 7 6 9
4 3 8 7 3 5 3 5 5 5 2 5 2 5 2 4 4 4 3 3 2 3 7 3 3 8 2 3 3 6 6 5 5 3 4 0 4 7 9 14 12 3 7 6 9
3 3 5 7 4 1 1 3 5 3 5 2 4 3 2 3 7 5 3 2 8 1 3 2 5 2 7 1 5 3 2 4 5 4 2 4 5 8 13 8 10 9 9 9 7
2 2 2 4 3 4 7 5 2 5 5 4 6 4 4 4 4 3 5 6 11 6 3 0 3 4 10 7 4 5 5 3 4 3 1 4 5 5 13 14 10 10 12 10 10
3 4 4 5 1 1 4 5 6 6 5 4 3 5 5 6 6 2 6 5 7 5 8 7 3 6 5 7 3 5 5 3 4 3 3 5 5 8 10 9 10 9 9 8 10
4 1 2 4 4 4 2 5 5 6 5 9 7 6 1 5 2 2 2 5 6 7 5 4 1 5 6 6 3 4 5 5 1 4 4 6 7 5 2 5 5 5 4 6 9
3 3 5 1 4 4 7 6 6 6 4 4 4 3 5 2 3 3 1 1 5 3 4 3 3 1 5 4 1 4 7 5 3 4 6 5 4 3 1 1 0 2 1 4 4
6 3 3 4 4 3 2 3 5 5 2 2 3 1 3 6 8 7 7 6 8 7 4 2 4 3 5 5 5 5 5 4 2 1 2 4 5 4 3 5 5 4 3 1 5
Wind_Direction
340 336 331 328 324 324 324 324 325 328 331 333 335 336 333 328 327 305 230 192 167 163 162 158 173 179 128 22 283 163 50 260 229 155 159 146 155 134 126 133 195 186 140 181 171
339 335 330 326 322 321 320 320 321 323 325 329 333 334 332 328 326 270 218 170 167 160 155 157 166 182 178 198 244 126 63 278 266 182 160 171 168 150 143 154 232 199 105 149 160
336 332 328 324 320 317 316 315 317 321 324 328 332 332 331 329 325 263 178 175 164 164 161 163 151 95 277 219 205 209 180 297 5 2 113 170 208 169 141 185 204 177 158 151 163
336 332 327 322 317 313 311 311 313 319 322 328 331 330 329 340 225 322 141 163 167 159 163 168 144 189 257 236 173 248 220 175 12 36 29 218 161 185 176 206 189 174 163 155 166
335 331 326 321 316 311 308 307 309 315 319 327 331 333 340 10 256 229 154 168 162 160 178 182 166 186 221 206 113 216 284 129 60 55 26 311 208 196 218 240 145 154 164 164 167
339 336 329 321 315 310 306 305 308 311 317 325 330 334 19 278 269 221 180 171 178 191 200 203 208 199 129 137 179 271 239 155 103 104 89 6 83 191 197 138 145 159 173 175 175
339 336 331 325 317 312 308 308 308 307 314 319 330 17 107 235 312 173 174 189 197 205 209 213 224 158 115 48 298 246 342 351 84 74 119 189 355 353 153 153 153 167 176 183 188
344 340 337 329 322 318 314 311 304 301 305 291 315 120 241 248 227 243 227 227 225 227 238 229 172 103 92 343 20 1 71 352 147 153 218 119 286 138 125 155 163 166 183 189 192
347 345 341 336 329 326 324 312 302 290 270 227 109 147 265 286 255 246 231 221 220 228 250 262 170 115 101 120 17 23 283 207 292 182 136 100 263 183 154 165 189 178 182 199 198
350 347 345 341 335 333 331 317 327 188 141 127 229 359 277 268 343 249 222 222 239 339 2 87 63 87 59 98 234 246 241 266 254 211 182 182 231 206 179 189 184 193 188 201 206
352 350 349 344 339 337 344 85 20 11 184 207 195 247 269 311 313 249 174 134 110 63 217 20 83 216 221 198 220 200 210 229 268 172 138 193 222 229 203 205 187 194 204 199 211
351 352 352 346 339 336 1 37 193 321 304 232 226 263 267 198 334 301 178 116 135 208 63 17 233 232 221 221 235 211 226 235 277 132 251 186 227 232 193 208 203 189 198 207 216
348 350 352 345 332 1 325 318 349 327 90 296 193 201 231 145 203 253 139 110 139 170 176 169 247 53 183 212 177 238 208 224 213 333 303 121 310 213 2 192 209 197 199 201 208
347 346 348 345 36 336 302 343 341 162 55 287 269 275 167 176 272 216 162 131 91 205 157 229 279 228 315 265 170 246 210 242 242 112 253 88 267 290 176 221 207 197 202 202 205
343 338 335 334 309 285 322 334 340 82 58 253 223 130 90 140 298 6 179 61 181 188 105 254 267 297 245 233 155 232 167 208 232 208 62 292 100 272 273 222 222 208 205 202 202
340 325 318 312 297 273 332 332 50 40 10 348 338 1 60 339 295 322 147 73 145 125 348 248 239 195 224 251 199 282 120 32 44 86 86 234 153 282 204 226 227 202 213 198 197
343 317 288 277 258 299 328 28 39 79 333 330 291 226 191 267 337 144 342 56 113 48 359 342 300 285 230 351 354 75 57 343 347 12 216 32 64 239 292 245 218 213 203 178 193
338 308 284 264 262 289 7 57 59 290 279 289 327 27 16 277 267 69 64 9 26 92 95 103 347 5 327 282 257 225 154 149 213 212 252 57 248 262 280 281 230 323 153 165 180
340 327 287 279 259 205 71 50 207 259 257 341 355 50 345 351 1 78 36 26 273 338 115 111 292 312 187 280 26 350 277 167 101 8 43 290 311 321 347 333 111 119 131 184 185
345 331 283 255 142 70 69 238 250 236 10 52 56 71 20 333 48 52 14 293 21 26 143 273 357 261 294 22 8 81 196 23 14 132 276 316 283 258 321 316 314 145 190 201 198
27 40 343 161 152 42 109 238 277 278 30 70 35 42 64 344 32 28 339 305 13 48 59 106 79 300 20 80 321 352 11 44 112 105 152 314 280 228 276 283 280 240 285 247 188
42 53 53 137 34 32 278 234 270 307 34 78 105 95 75 20 21 53 75 329 332 143 64 317 132 284 251 356 326 5 68 114 104 288 80 135 276 293 329 353 61 37 31 33 21
61 254 275 213 63 332 311 301 299 354 16 29 35 34 25 42 96 36 0 326 14 50 51 115 48 5 344 4 1 35 342 81 102 78 231 110 267 347 3 26 18 55 26 11 43
58 20 332 40 56 87 328 326 328 16 69 50 31 71 68 33 11 71 355 340 357 40 44 79 102 147 178 226 231 312 320 65 97 82 220 223 279 312 6 11 19 43 0 351 35
25 7 172 340 334 351 318 343 359 14 25 27 27 31 27 36 39 62 343 332 329 3 36 76 173 194 228 232 219 256 276 334 4 203 176 253 210 276 0 314 351 9 353 33 48
73 38 356 294 305 359 2 344 0 340 44 3 73 341 14 130 174 281 126 193 242 335 58 21 267 263 271 262 359 255 285 294 250 233 243 208 240 234 137 230 196 140 109 62 37
15 41 104 303 350 57 317 310 340 323 335 62 285 73 324 228 203 216 203 204 216 199 151 163 150 90 274 345 334 333 251 191 254 284 227 176 234 173 204 204 199 186 191 224 307